Wind_Speed
17 18 18 18 17 16 15 15 14 14 13 13 13 13 11 11 14 13 12 10 9 8 7 6 5 5 4 4 4 3 3 3 2 2 3 3 4 6 7 6 6 7 8 7 8 9 10 10 11 12 12 13 13 14 16 17 18 19 19 18 17 17 19 20 23 27 28 28 29 31 31 31 32 30 29 31 32 33 35 36 38 40 41 41 40
18 18 18 17 16 15 15 15 15 15 14 14 13 12 11 14 14 13 12 10 9 7 6 6 5 5 4 4 4 3 3 3 2 3 3 3 4 7 7 7 7 7 8 8 10 10 10 11 11 12 12 12 13 14 16 17 18 19 19 18 17 17 18 21 23 27 30 31 31 32 32 32 32 30 29 30 33 35 37 38 40 41 42 43 43
18 17 17 16 16 16 16 16 16 15 14 14 13 12 14 16 15 13 12 10 9 7 6 6 6 5 5 4 4 4 3 3 2 2 3 3 5 7 7 7 8 8 9 9 10 10 10 11 11 12 12 13 14 15 16 17 18 19 19 18 18 17 17 19 22 26 30 33 33 34 35 34 34 31 29 31 33 36 38 40 42 43 44 44 44
17 17 16 16 16 16 17 17 16 16 15 14 13 15 16 16 14 12 10 9 8 8 7 7 6 6 5 5 4 4 3 3 2 2 3 4 5 7 7 8 8 9 10 10 10 10 10 11 11 12 12 13 15 16 18 19 19 19 19 18 17 18 17 18 20 24 29 33 34 35 36 36 35 32 31 33 35 36 39 41 43 45 45 45 45
18 18 17 16 15 15 15 16 16 16 15 15 15 17 17 16 14 12 10 9 8 9 8 8 7 6 6 5 4 4 4 3 2 3 4 5 5 6 6 7 8 9 10 11 11 10 11 11 11 12 13 14 16 17 18 19 19 18 18 17 17 18 18 19 21 23 27 32 35 36 37 37 35 32 32 35 37 39 41 42 44 46 46 46 45
19 18 16 14 14 14 15 16 16 16 16 17 17 18 17 15 14 11 10 9 9 9 9 9 8 7 6 6 5 5 4 3 3 3 4 5 5 5 6 6 8 9 9 10 10 10 11 11 12 13 14 15 16 17 17 17 17 17 17 17 18 18 20 21 23 25 28 32 35 37 38 37 35 33 33 35 38 41 43 45 46 45 45 47 48
18 16 15 14 15 16 16 16 17 17 18 18 18 18 17 15 13 11 10 9 9 10 9 9 8 8 7 6 6 5 4 4 4 4 4 4 5 5 5 6 7 8 8 9 10 11 12 12 13 14 15 15 16 17 17 16 16 17 17 18 18 19 21 23 25 28 31 33 35 36 37 35 34 34 35 36 38 40 42 46 49 48 46 46 49
18 16 16 16 16 17 17 16 17 18 18 19 18 18 17 15 12 10 10 10 10 10 9 8 8 8 7 7 6 5 4 4 4 4 3 4 5 5 5 5 6 6 7 8 9 11 12 13 13 14 15 15 16 16 16 16 17 17 17 18 19 20 22 24 27 29 32 34 35 36 36 35 34 35 37 39 41 42 42 43 47 49 49 49 49
18 17 18 18 18 17 17 16 17 18 18 19 19 18 16 14 12 10 10 11 11 11 10 9 8 8 8 7 6 6 5 4 4 4 3 4 5 5 5 5 4 4 5 6 8 9 11 12 13 15 15 14 14 14 14 15 17 18 18 19 20 22 24 26 28 31 33 35 36 35 35 35 36 37 39 40 41 43 44 44 45 47 49 51 50
20 20 20 20 19 18 17 17 17 18 19 19 19 18 16 14 12 11 10 11 11 11 10 10 9 8 8 7 7 6 5 5 4 4 4 4 4 5 4 4 4 3 4 5 6 8 11 12 13 15 14 13 13 14 14 15 16 17 18 19 20 23 25 28 29 31 33 35 35 34 34 35 36 37 39 40 41 42 44 45 46 48 49 52 53
21 21 21 21 19 19 19 19 19 19 20 20 19 18 16 14 13 11 11 11 12 11 11 10 10 9 8 7 7 6 6 6 5 5 5 4 4 4 3 3 4 3 3 4 5 8 10 11 13 13 13 13 14 15 15 16 17 17 18 19 20 23 25 28 31 32 33 34 33 32 32 34 36 37 38 40 41 42 44 45 46 48 49 50 53
22 21 22 21 21 21 21 20 20 21 21 21 20 18 16 15 13 12 11 12 12 12 11 11 11 10 9 8 7 7 6 6 6 6 5 5 4 2 2 3 3 2 1 3 5 7 8 10 11 12 12 13 15 16 17 17 17 18 18 19 20 22 25 27 30 32 32 32 31 30 30 32 35 37 38 40 42 43 44 44 44 46 47 47 50
23 22 23 23 23 23 22 21 22 23 22 21 20 18 17 15 13 12 12 12 12 12 12 12 11 10 9 8 7 7 7 7 7 6 5 5 3 2 1 2 1 2 2 3 6 7 8 8 9 10 11 13 15 17 18 18 18 18 19 19 21 23 24 26 28 29 29 29 28 28 28 30 34 36 37 39 41 43 44 45 45 45 45 46 48
23 23 24 25 24 24 23 23 23 24 23 21 20 18 17 15 13 12 12 12 13 13 13 12 12 11 9 8 8 7 7 7 7 6 5 4 3 2 1 0 2 3 3 5 6 8 8 8 8 9 11 14 16 17 18 19 20 20 20 20 22 24 25 27 28 29 28 26 25 26 27 28 32 35 36 37 40 43 44 46 47 46 46 47 47
24 24 25 26 26 25 24 24 25 24 23 21 20 19 17 16 14 13 12 13 13 13 13 12 11 10 9 9 8 8 8 8 7 6 5 4 3 2 1 2 3 4 5 6 6 8 8 7 8 9 11 14 16 17 18 20 21 22 22 22 23 24 26 28 29 29 29 26 24 25 26 27 30 33 36 38 39 41 43 45 46 47 48 48 48
24 25 25 26 27 26 25 26 26 25 24 23 21 20 19 17 15 13 13 14 14 14 13 12 11 10 10 9 8 8 8 8 7 6 6 5 4 3 2 3 4 5 6 6 6 7 7 7 8 9 11 13 15 16 18 20 22 23 24 24 25 25 26 28 28 28 28 26 24 24 25 25 28 31 34 37 39 42 44 46 47 49 49 49 50
24 24 25 27 28 27 26 26 26 26 25 24 22 21 19 17 15 14 14 15 15 14 13 13 12 11 10 10 9 8 8 8 7 6 6 5 4 4 4 5 5 6 6 6 6 6 6 7 7 8 11 13 15 16 17 20 22 23 25 26 26 27 28 28 28 28 28 27 26 26 26 26 28 31 34 36 40 43 46 48 50 51 51 51 51
24 24 25 27 27 27 26 26 27 26 26 24 23 21 20 18 16 14 14 15 15 14 14 13 13 12 11 10 9 8 8 8 7 6 5 4 4 4 5 5 6 7 7 6 6 6 6 6 7 8 10 13 14 15 17 19 21 23 26 27 28 29 30 30 30 30 29 29 29 29 29 29 30 33 35 37 40 43 45 48 50 50 50 50 51
25 25 25 26 27 27 26 26 27 27 26 25 23 21 20 19 17 15 15 16 15 15 14 14 13 13 12 11 10 9 8 7 7 6 6 5 4 4 4 5 6 6 6 6 5 5 5 5 5 7 10 12 14 15 17 19 21 23 25 27 28 30 30 31 31 32 32 32 32 32 32 32 33 34 36 37 40 43 45 46 48 49 49 48 50
26 25 24 25 26 26 25 26 27 27 26 25 23 22 21 20 18 17 17 17 16 15 15 14 14 13 13 11 10 9 7 7 6 6 6 5 4 4 3 4 5 5 5 5 4 4 4 4 4 6 9 12 14 15 16 18 21 23 24 26 28 29 29 29 30 31 32 33 33 33 33 34 34 35 37 38 41 44 46 46 47 48 48 48 48
26 24 24 25 26 25 25 26 27 27 26 24 24 23 22 20 19 19 19 19 18 17 16 15 14 13 13 11 10 9 8 7 7 6 6 5 4 4 3 4 5 5 5 4 3 4 3 1 3 6 9 11 13 14 16 18 20 22 24 25 26 27 28 28 29 29 30 32 33 33 34 35 35 35 38 40 42 45 48 48 48 48 48 48 47
26 24 24 25 25 25 26 26 27 27 26 25 25 24 22 21 20 20 20 20 19 18 17 16 15 14 13 13 11 10 9 8 7 6 5 4 4 3 3 4 5 6 5 4 4 4 2 1 4 7 9 11 12 14 15 17 19 21 23 24 25 25 26 27 28 29 30 32 34 35 35 36 36 36 38 42 43 45 49 50 49 48 48 47 46
26 25 25 25 25 25 26 27 27 27 26 25 25 24 23 22 21 21 21 21 21 20 19 18 17 15 15 14 13 12 10 9 8 7 5 4 3 3 3 4 5 5 4 4 5 4 2 2 5 7 9 11 12 13 15 17 18 20 22 22 24 25 26 27 28 30 31 33 34 36 36 36 36 36 38 42 44 45 48 50 50 48 48 49 49
26 26 25 25 25 25 26 27 27 27 26 26 26 24 23 23 22 22 21 22 22 22 21 19 18 17 16 15 14 13 11 10 8 7 5 4 4 3 3 4 4 4 4 5 5 3 1 2 4 7 9 10 11 13 14 16 18 20 21 22 23 24 26 27 29 30 32 33 35 36 36 35 35 36 37 40 42 44 46 49 50 49 48 49 51
27 26 26 26 26 26 27 28 28 27 27 27 27 25 25 24 24 23 23 24 24 23 22 21 19 18 17 16 14 13 11 10 8 7 6 4 4 3 3 3 4 4 5 6 5 3 1 2 4 6 9 10 11 12 14 16 18 19 20 21 23 24 26 27 29 31 32 34 35 35 35 34 34 34 34 37 41 43 46 49 52 51 50 51 52
26 26 26 26 26 27 28 29 28 28 27 27 27 25 25 25 25 25 25 26 25 24 23 22 20 19 17 16 14 12 11 10 8 6 5 4 4 3 3 3 4 5 6 5 4 3 1 2 3 6 8 10 11 12 14 15 17 18 19 21 22 24 26 27 29 31 32 33 34 35 35 34 33 33 33 36 40 43 46 49 53 54 53 53 54
26 26 26 27 28 29 29 29 29 29 28 28 27 26 26 26 26 26 26 27 26 25 24 22 21 20 18 16 14 12 10 10 8 6 5 5 4 3 2 3 4 5 5 5 4 4 3 3 4 5 7 10 11 13 14 15 16 17 19 20 22 23 25 26 28 29 31 32 33 34 34 33 33 34 35 36 39 42 44 48 52 55 55 53 53
26 26 27 28 29 29 29 29 30 30 30 29 28 27 27 26 27 27 27 27 27 26 25 23 22 21 19 16 14 12 11 10 8 7 6 5 4 3 3 3 5 5 5 6 5 5 5 5 5 6 7 9 11 12 13 15 16 18 19 20 21 22 23 24 26 27 29 31 33 34 35 35 35 35 35 36 37 40 43 46 49 53 55 55 53
26 27 28 29 30 30 30 29 30 30 30 30 29 27 26 26 27 27 26 25 24 23 22 21 21 20 17 14 12 11 10 8 7 6 5 5 5 5 4 5 6 6 6 7 6 6 6 5 6 7 8 9 11 13 14 16 17 18 19 20 21 22 23 24 25 27 29 31 33 34 35 36 36 36 36 36 37 39 41 44 47 50 53 55 53
28 29 30 30 31 31 30 30 30 30 30 30 29 27 26 26 26 26 24 23 22 21 19 18 16 15 14 11 10 8 6 6 6 6 6 6 6 6 6 7 8 8 9 9 9 8 7 6 6 8 9 10 11 13 15 17 18 19 20 20 21 22 23 24 25 26 28 30 32 34 35 36 37 37 37 36 36 38 40 42 44 48 51 53 54
31 31 31 31 32 31 31 31 31 31 31 30 29 28 27 28 27 26 23 21 21 20 19 16 14 13 13 11 9 7 6 6 7 7 7 8 8 8 8 9 10 11 11 12 11 11 9 7 7 8 9 10 12 13 15 17 19 21 21 21 21 22 23 23 24 25 27 28 30 32 34 36 37 37 37 37 36 36 38 40 42 45 48 51 52
31 31 31 32 32 32 31 31 31 32 31 29 28 29 29 29 29 26 23 22 21 20 19 17 16 16 15 13 11 10 9 8 9 9 9 10 10 10 10 11 12 12 12 13 13 12 11 9 8 9 10 11 12 13 15 17 20 22 23 22 22 21 22 23 23 24 25 27 28 31 33 35 36 37 37 37 36 35 36 39 41 43 45 48 50
31 30 31 32 33 33 33 32 32 32 31 29 29 30 31 31 30 27 25 24 23 22 20 19 18 18 17 15 14 12 11 10 10 11 11 11 11 11 12 12 13 13 13 13 13 13 12 11 11 10 11 12 12 13 15 17 19 22 23 23 23 22 21 22 22 23 24 25 26 28 31 33 34 36 36 36 36 35 35 37 40 42 43 45 47
30 30 30 31 32 33 34 33 33 31 30 29 29 30 31 32 30 27 26 26 25 23 22 21 20 19 18 17 15 14 13 12 12 12 12 12 12 12 13 13 13 13 13 13 13 13 12 13 12 11 12 13 13 14 15 16 18 21 23 24 23 22 21 21 22 22 23 24 25 26 28 30 32 34 35 36 36 35 34 34 37 40 41 42 44
31 30 30 30 30 32 33 33 32 31 29 29 28 29 31 31 30 28 28 27 26 24 23 22 21 19 18 17 16 15 15 14 14 14 14 13 13 13 13 13 13 13 13 13 12 12 13 13 13 12 12 13 14 15 15 16 17 19 23 24 24 22 22 21 21 22 22 23 24 25 26 28 29 31 33 34 35 35 34 33 33 36 38 40 40
31 31 31 31 30 31 32 33 32 30 29 28 28 29 30 31 30 29 28 27 25 23 21 20 20 19 19 18 18 17 16 15 15 15 15 14 14 14 14 12 11 12 13 12 11 11 12 12 13 13 13 13 14 15 15 16 16 18 21 24 24 22 21 21 21 21 21 22 23 24 24 26 27 29 31 32 33 34 34 33 31 32 34 37 37
32 32 32 31 31 32 32 32 31 30 29 28 28 28 29 29 29 29 28 27 24 22 21 20 20 20 21 21 20 18 17 16 17 16 15 14 15 14 12 10 9 10 10 9 9 10 11 11 12 13 13 13 14 15 16 16 16 17 20 22 22 20 19 20 20 21 21 22 22 23 23 24 25 27 29 30 32 32 33 33 31 30 31 33 35
34 33 32 31 31 32 32 32 30 28 27 27 27 27 28 28 29 29 28 26 24 23 23 22 21 21 21 20 19 18 18 18 19 18 15 14 13 12 10 9 9 9 8 8 9 10 11 12 12 13 14 14 15 16 16 16 16 16 18 20 19 17 17 18 19 20 21 22 22 23 23 24 24 26 27 28 29 31 31 32 32 30 29 31 33
35 34 32 30 29 29 30 31 30 27 26 27 28 27 27 28 29 29 27 25 24 24 24 24 24 22 20 18 18 19 20 20 20 17 15 13 12 11 11 11 11 11 10 10 11 12 12 13 13 14 15 15 16 16 17 17 16 16 17 19 18 16 16 17 19 19 20 21 22 22 23 24 24 24 25 26 27 29 30 30 31 30 29 28 29
36 35 33 31 28 27 27 29 30 28 27 28 28 27 27 28 29 27 26 25 25 24 24 25 25 22 19 18 18 19 19 19 18 16 14 13 13 12 13 13 13 13 14 13 13 13 14 14 14 14 15 15 16 17 16 16 16 16 16 17 17 16 16 16 18 19 21 22 22 22 23 24 24 24 25 25 26 27 28 29 29 29 28 27 25
35 34 33 32 29 25 25 28 30 29 28 28 28 27 27 27 27 26 26 25 24 23 22 23 23 21 18 17 17 17 17 17 16 15 14 14 13 13 14 14 14 15 16 16 15 15 15 15 15 15 14 15 16 16 15 15 16 15 15 16 17 17 17 18 18 20 21 23 23 22 22 23 24 24 24 25 25 26 26 27 27 27 28 27 26
32 32 33 33 31 25 23 26 29 28 27 27 27 26 26 26 26 26 27 26 24 22 22 22 21 20 18 17 17 17 17 17 17 16 15 14 14 14 14 14 15 16 16 17 16 16 16 15 15 15 15 15 14 14 13 14 14 14 15 15 17 18 20 21 21 22 22 23 24 23 22 22 23 23 24 24 24 25 25 26 26 26 27 27 27
29 30 32 34 32 26 23 24 26 26 26 26 25 26 27 26 25 26 28 28 26 24 23 22 21 19 18 18 17 18 19 19 19 19 18 16 16 16 16 16 16 17 17 18 17 16 15 15 14 13 13 13 12 11 11 12 12 13 15 16 18 19 21 22 23 23 24 25 25 25 23 22 22 23 23 24 24 24 25 25 25 25 26 26 26
29 30 32 35 32 27 24 25 27 27 26 26 26 27 27 26 24 25 28 29 27 25 24 23 21 19 19 18 19 19 19 19 19 19 18 18 18 18 17 17 17 17 17 16 15 14 14 14 13 13 13 12 11 10 11 11 12 14 15 16 18 19 20 21 21 22 24 26 28 27 27 25 23 22 23 24 24 24 24 24 25 25 25 25 25
29 30 34 35 33 29 27 29 30 30 28 27 28 28 27 26 26 27 28 28 27 26 25 23 21 20 20 19 20 20 20 20 19 19 19 19 19 18 17 17 16 16 15 14 13 13 14 14 15 15 15 14 12 12 12 13 14 15 16 17 18 19 20 19 19 20 23 26 28 28 28 28 27 25 23 23 24 24 24 24 24 24 24 24 24
29 31 34 35 34 31 30 31 32 31 29 28 28 28 28 28 28 28 28 28 28 28 26 24 23 22 22 21 21 21 21 20 20 20 20 19 19 18 18 18 18 18 17 17 16 17 17 17 17 18 18 17 17 16 15 15 16 16 17 18 19 20 20 20 20 21 24 26 27 27 27 28 29 28 26 24 23 23 24 24 24 23 23 23 23
30 32 34 35 34 31 29 29 31 33 31 29 28 28 28 29 30 29 28 28 29 28 26 24 23 22 21 21 22 22 22 22 22 21 21 21 20 20 20 21 21 20 20 19 18 19 19 19 19 20 20 20 19 19 18 18 18 19 19 20 20 20 20 20 21 22 23 24 25 26 26 26 27 29 29 28 25 23 23 24 24 23 23 23 23
31 31 33 34 34 30 25 25 30 33 31 28 26 26 27 29 30 29 27 27 27 27 26 25 23 22 21 20 20 20 21 21 22 22 22 22 22 22 23 22 21 19 19 18 18 18 18 18 18 18 18 19 19 19 19 20 20 21 21 21 20 20 20 20 21 21 22 22 22 23 24 25 26 27 28 29 28 26 25 24 23 24 24 23 22
31 30 31 33 32 28 23 24 29 31 28 24 24 25 26 28 30 28 26 24 24 25 25 25 24 24 23 22 21 20 20 20 21 21 22 22 22 21 20 19 19 18 18 18 18 18 17 17 18 18 19 19 19 20 20 21 21 21 21 21 21 20 20 20 21 21 21 21 21 22 23 24 25 26 26 27 28 28 27 26 24 24 24 24 23
30 30 30 31 28 25 23 25 28 26 23 21 22 23 26 28 29 28 26 24 24 25 26 26 26 26 25 24 23 22 22 22 22 22 22 22 21 20 20 20 20 20 21 21 20 20 19 19 20 21 22 22 23 23 23 23 23 22 21 21 21 21 21 21 21 21 21 22 22 22 24 25 25 25 25 25 26 27 28 27 25 25 24 24 23
30 31 30 28 25 23 24 26 24 22 21 21 21 23 25 27 28 28 26 25 24 24 25 25 25 26 26 26 26 25 25 25 23 22 21 20 20 20 20 20 20 20 20 20 20 20 20 20 21 21 22 23 23 24 24 25 25 24 23 22 22 22 22 22 22 22 22 23 23 24 25 27 28 27 26 26 26 26 27 26 25 25 25 25 24
Wind_Direction
226 230 232 234 234 233 232 232 232 234 235 238 248 258 248 214 196 190 186 185 187 192 194 190 190 186 178 178 174 174 174 165 149 122 105 110 110 103 104 109 101 86 77 64 57 50 42 39 37 35 30 21 18 17 17 16 13 12 11 10 11 6 359 356 346 341 344 346 343 343 344 343 343 345 343 339 339 339 339 339 340 339 339 339 338
229 230 232 234 235 236 236 234 233 233 234 236 245 247 223 199 193 192 189 187 187 191 193 188 186 183 176 171 166 166 166 159 143 126 125 122 112 106 105 103 94 83 75 64 57 50 44 39 35 31 26 20 18 16 15 16 13 12 12 9 9 8 2 355 350 343 339 342 343 342 343 344 344 346 346 343 341 340 339 338 338 338 338 338 337
230 231 234 237 240 240 237 235 233 231 232 235 238 224 202 193 194 195 194 191 188 188 190 188 184 178 172 169 164 161 158 150 138 134 138 125 110 109 104 96 87 80 74 67 62 55 46 38 32 29 25 19 17 16 14 13 12 11 11 9 7 6 4 357 349 343 338 338 341 341 342 344 345 347 347 345 343 341 340 338 337 336 337 336 335
234 237 240 243 243 239 235 231 227 227 229 229 220 203 194 193 194 196 199 200 195 190 187 185 181 174 167 166 163 161 160 154 144 140 138 127 117 113 105 94 86 81 77 71 65 56 45 36 30 27 23 18 16 15 13 11 10 10 8 7 4 359 357 352 346 342 338 336 338 341 343 344 346 348 348 346 344 343 341 339 337 335 335 335 333
240 245 248 246 239 231 225 219 216 218 220 213 202 195 194 196 196 197 203 206 201 193 187 182 178 172 167 167 170 171 170 166 157 143 136 133 128 121 110 95 86 81 77 72 64 54 43 34 29 26 20 18 16 14 13 11 9 8 5 1 357 351 348 345 342 340 337 336 338 341 344 345 346 349 350 347 344 343 341 338 336 335 333 332 331
242 246 246 240 230 220 211 208 206 208 206 199 195 195 198 200 201 200 202 204 201 191 185 182 177 173 175 178 182 186 182 171 162 150 141 138 137 131 117 98 86 78 73 68 59 50 42 31 27 25 19 16 15 12 11 11 8 5 0 354 349 345 344 343 341 340 339 339 341 343 344 346 347 348 350 348 345 343 341 337 335 334 332 331 330
241 242 239 231 223 214 206 203 200 197 196 195 196 198 201 204 206 202 196 196 195 189 185 183 178 176 183 189 189 190 185 172 163 159 150 142 140 138 124 105 89 76 67 60 49 39 33 27 23 21 17 15 14 12 9 7 5 1 355 351 347 343 342 342 341 341 342 343 345 345 345 347 348 348 348 348 346 344 342 337 333 333 333 330 329
239 238 233 227 221 212 203 198 195 192 194 197 199 202 204 206 206 202 194 190 190 187 186 187 185 183 186 191 192 190 185 179 171 167 162 144 137 139 132 116 96 78 65 53 41 30 24 21 18 16 16 16 14 12 9 2 358 356 353 349 346 343 343 343 343 344 345 347 347 347 346 347 349 348 348 349 347 344 342 337 332 332 332 330 329
238 237 232 226 219 209 200 195 193 193 196 199 202 204 205 205 204 200 194 189 188 188 187 188 191 192 190 189 191 191 188 183 176 173 168 149 140 142 139 129 112 82 62 48 31 20 17 15 13 13 14 13 10 9 6 359 354 354 353 350 347 345 345 345 345 347 349 350 349 348 348 348 349 350 350 351 348 343 341 338 333 332 332 330 330
238 237 232 224 214 204 197 195 195 196 198 201 204 205 206 205 201 198 195 191 189 190 189 188 190 192 192 192 192 193 190 186 184 179 170 158 149 140 130 128 121 85 53 38 18 7 9 8 7 9 8 6 6 7 4 0 358 356 353 351 348 347 346 347 350 352 353 352 350 350 349 347 349 351 351 350 348 344 342 339 336 335 334 331 330
237 234 227 218 208 200 196 197 198 200 201 203 206 207 209 208 203 198 197 194 191 192 191 189 189 189 191 194 194 194 193 190 190 184 168 161 160 137 112 110 105 77 38 17 2 357 360 0 1 3 2 2 5 6 5 4 2 357 353 352 351 350 349 351 354 356 355 353 351 350 349 347 348 352 353 351 350 347 344 342 338 336 335 331 329
234 228 220 212 204 199 199 200 201 201 202 204 206 208 211 212 209 204 200 196 194 193 190 188 189 188 188 192 194 195 197 195 193 188 173 166 173 156 107 94 85 66 16 340 339 345 351 355 357 358 358 359 1 2 4 5 2 357 353 352 352 354 356 356 357 357 356 353 351 350 350 348 349 354 356 354 352 349 346 343 341 337 333 331 328
227 219 213 207 203 202 202 202 201 200 200 203 206 209 212 215 216 211 204 199 195 193 190 187 188 188 186 190 195 196 196 196 194 186 178 176 185 187 123 88 37 353 312 299 315 334 345 350 353 354 354 356 358 360 1 1 360 358 356 355 356 359 0 0 1 1 359 354 350 349 350 350 352 357 359 357 354 351 347 343 341 338 334 333 331
218 212 209 206 205 205 204 203 200 199 201 205 208 211 214 216 216 213 208 203 198 194 191 188 188 188 186 187 193 197 195 195 192 183 178 184 192 195 173 27 330 326 305 289 307 330 340 344 348 351 355 356 356 358 358 356 356 357 359 360 1 3 2 2 4 4 2 358 352 348 349 351 354 357 360 360 357 353 348 344 341 340 338 336 336
212 210 209 207 206 206 205 203 201 201 204 207 210 212 214 214 212 211 208 203 198 194 191 190 189 188 187 185 188 194 192 190 187 182 182 193 200 205 232 274 294 308 300 291 307 328 335 339 342 348 357 358 355 355 355 353 353 356 360 3 6 7 4 4 6 5 3 1 355 349 349 350 354 357 360 1 359 355 352 348 345 343 342 340 339
211 210 210 208 207 207 206 203 202 204 206 208 210 211 213 213 211 208 204 199 196 193 190 191 191 189 186 183 184 188 187 183 182 184 192 206 216 225 250 270 280 291 294 294 307 321 328 331 336 347 358 358 354 354 352 351 352 355 358 4 7 8 7 7 7 5 4 3 358 352 350 350 353 356 358 1 2 358 355 353 351 348 345 341 338
214 213 212 210 208 208 207 205 204 206 207 208 210 212 214 215 213 210 205 199 195 192 190 189 188 188 185 181 179 182 182 179 178 181 191 208 225 244 257 267 275 282 286 290 299 310 318 323 332 350 360 357 355 353 350 351 354 355 358 3 5 6 7 6 5 4 5 4 1 358 355 354 355 356 358 2 5 3 358 356 354 351 347 341 337
217 216 215 213 211 209 208 208 208 208 209 210 211 213 216 217 217 213 207 202 196 192 191 189 185 183 182 179 176 178 184 183 178 177 182 195 216 237 253 262 268 273 276 280 287 301 311 318 333 354 1 359 357 353 351 352 354 355 359 2 4 5 6 4 2 2 4 4 3 3 2 0 359 358 358 2 7 7 3 358 356 353 348 343 339
219 218 216 214 213 212 211 210 211 211 211 213 214 216 218 218 218 213 206 202 198 193 191 191 187 182 179 178 175 177 185 187 181 180 183 190 203 217 238 253 258 264 269 271 280 296 304 312 336 360 4 4 1 356 353 354 355 357 0 1 3 4 4 2 0 0 2 3 3 3 4 4 1 359 359 2 8 10 7 3 1 355 349 345 344
220 218 217 216 215 215 214 213 212 212 214 215 216 218 218 217 216 211 203 199 198 196 191 189 188 183 178 178 178 178 183 188 188 187 186 187 195 203 221 241 250 257 262 264 276 288 287 299 349 12 10 8 4 358 356 356 357 360 2 2 2 2 0 0 0 0 2 3 3 2 3 4 4 2 2 4 8 10 9 8 5 0 353 349 347
219 218 219 219 218 217 216 214 214 214 216 217 216 216 218 218 215 209 203 199 198 196 192 188 187 184 179 177 180 179 178 181 185 186 184 183 186 194 211 232 244 250 252 255 265 265 257 287 18 20 15 11 5 359 357 358 360 2 4 4 1 358 358 360 1 2 3 4 4 3 2 5 6 5 5 6 8 9 10 10 8 6 3 357 350
220 220 221 221 219 217 215 214 215 215 216 217 216 215 216 218 215 208 202 200 198 196 193 189 186 184 180 178 177 176 173 173 173 174 178 180 184 195 209 226 237 235 231 230 230 223 204 61 29 21 17 12 5 360 358 359 1 4 5 4 1 359 360 1 1 3 5 6 6 5 3 5 7 7 6 6 7 9 11 11 10 10 11 9 1
221 221 221 219 216 215 214 214 214 215 215 216 216 216 216 215 212 206 200 198 197 195 193 190 185 183 182 178 173 169 168 168 167 168 172 174 182 199 213 223 228 223 213 212 209 195 155 50 30 20 15 10 3 359 358 358 360 3 4 3 1 0 1 2 3 5 7 8 8 7 5 5 5 7 7 6 6 10 12 12 12 12 14 16 13
220 220 220 217 215 214 215 215 215 214 215 215 214 215 216 214 209 204 197 195 197 196 193 190 187 184 184 180 174 170 168 167 168 169 171 172 176 195 213 216 216 213 210 212 205 188 134 42 29 20 14 9 3 359 358 357 358 0 1 1 1 1 2 4 5 6 7 9 9 8 6 5 4 6 6 5 6 9 12 13 14 14 15 16 17
219 220 219 216 215 215 215 214 214 214 213 213 213 214 215 212 207 201 196 194 197 197 194 192 189 187 186 183 178 174 170 170 171 172 173 177 179 193 211 210 206 211 215 215 209 197 170 21 23 19 13 8 4 1 358 357 357 357 358 359 1 2 4 5 6 7 8 9 9 7 6 4 4 5 5 5 7 9 11 13 14 15 16 17 19
220 218 217 216 215 216 215 213 213 212 212 213 215 217 215 211 206 201 197 196 198 198 196 194 191 190 190 185 180 179 177 176 177 179 182 189 191 196 210 214 218 224 225 222 219 222 254 327 360 9 9 6 6 3 360 358 357 355 356 359 1 3 5 6 7 7 8 9 9 7 6 4 3 4 4 5 7 9 10 12 13 14 16 16 17
220 217 215 215 215 215 214 211 210 210 211 212 215 218 217 212 208 204 200 198 197 197 197 197 195 195 193 186 182 184 185 185 186 189 195 202 207 212 220 233 241 244 239 236 238 244 261 292 325 349 359 2 5 5 1 359 357 355 356 359 2 4 6 7 8 8 8 8 8 7 6 4 3 4 5 5 7 10 11 11 12 13 15 16 15
220 218 215 215 215 214 212 211 210 209 210 213 215 216 215 212 210 209 206 204 202 199 198 199 200 200 195 188 186 189 193 195 194 196 207 217 225 233 240 249 255 257 251 246 246 253 268 288 308 329 346 354 0 4 3 0 358 355 355 357 359 2 4 6 10 11 10 8 8 7 6 6 4 4 5 5 6 8 11 12 13 14 16 17 15
220 219 217 215 215 213 211 211 211 211 211 214 217 218 217 214 213 211 210 211 209 206 204 204 204 202 197 192 192 192 194 198 198 203 219 233 240 249 257 260 263 265 258 251 250 258 273 290 305 319 335 346 354 0 2 1 359 355 353 353 355 357 1 3 8 12 11 9 7 7 7 7 6 5 5 5 5 6 10 12 13 14 16 18 17
219 218 217 216 214 212 211 211 212 214 214 215 216 217 217 215 214 212 210 210 208 206 207 207 206 204 201 198 196 192 190 202 212 222 235 245 252 259 260 260 262 261 258 257 260 265 275 292 310 320 331 342 350 357 359 359 358 355 352 351 351 351 355 359 3 8 11 10 8 7 6 6 6 5 5 5 4 4 7 11 14 15 16 18 18
219 217 217 216 214 213 212 212 213 214 216 216 216 215 212 210 210 210 210 208 204 199 199 201 204 210 213 212 210 210 214 227 239 247 249 251 256 261 263 264 263 260 258 261 264 268 274 287 306 318 327 337 346 353 356 357 356 353 351 350 349 348 349 352 357 2 7 9 9 7 7 6 6 6 5 5 5 4 5 9 13 15 17 18 19
220 218 217 216 215 214 214 214 214 214 215 216 217 215 209 205 207 209 209 206 202 198 200 204 210 216 221 223 226 232 240 250 257 258 255 252 254 256 260 264 265 263 264 264 265 268 274 282 294 308 319 329 339 346 351 353 354 352 349 346 345 346 345 346 351 356 1 5 8 8 7 6 6 6 5 4 6 6 5 7 10 14 16 17 19
222 221 218 216 215 215 215 215 215 215 216 216 216 214 210 207 208 210 207 203 201 203 207 212 216 219 223 226 229 235 244 257 263 260 254 251 251 254 258 261 263 266 269 269 268 268 271 277 286 298 310 319 329 337 343 348 349 349 347 344 341 342 343 343 346 349 354 360 4 6 7 6 6 7 6 5 6 7 7 7 8 10 13 15 17
223 223 221 218 216 215 216 217 217 217 218 218 217 216 214 212 212 211 207 203 203 207 211 213 215 218 222 227 231 235 242 255 262 260 252 248 249 254 258 260 262 267 272 274 273 271 270 274 283 293 303 312 322 329 335 341 344 344 344 342 338 338 339 340 342 344 347 353 358 2 5 5 5 6 6 5 5 6 8 7 7 8 11 13 14
222 223 223 222 219 217 217 218 219 219 219 220 220 219 217 215 215 213 209 206 208 212 214 216 218 222 225 229 232 236 243 253 258 254 249 247 250 253 255 258 264 270 274 277 279 278 276 278 283 292 299 307 316 324 329 335 339 340 341 339 338 338 338 340 342 343 344 347 352 357 1 3 3 4 6 6 5 5 6 7 6 6 8 11 13
221 221 221 221 221 220 219 219 220 220 220 222 223 222 220 217 215 212 211 212 216 221 223 225 228 231 233 235 237 240 245 251 251 248 245 245 248 250 253 259 267 271 274 281 287 288 287 286 286 290 296 302 310 318 325 329 333 336 338 338 338 340 342 344 346 346 345 345 346 350 355 359 1 2 4 6 6 5 5 5 5 5 5 8 11
220 221 221 220 219 220 220 220 220 220 221 223 225 224 220 217 214 212 212 216 222 227 230 232 235 238 239 240 240 242 244 245 243 240 239 241 246 248 251 258 267 270 275 287 294 295 298 297 292 292 296 300 305 312 319 325 329 332 335 336 338 341 346 349 350 350 349 347 346 346 349 353 357 359 1 3 6 6 5 5 4 4 4 5 8
222 222 221 219 218 218 220 220 220 220 223 226 228 226 220 215 211 211 214 220 227 232 232 234 238 242 243 241 240 239 238 237 235 234 236 241 246 249 250 257 267 273 282 293 295 295 300 303 298 293 293 295 300 306 312 319 325 328 331 333 335 340 346 348 350 350 350 350 349 347 347 348 351 354 356 359 2 5 5 4 4 3 2 3 5
222 222 221 219 217 217 220 220 219 221 224 227 228 225 219 213 209 211 218 226 232 234 235 236 239 241 239 235 232 230 231 232 232 235 240 246 251 254 255 260 269 277 285 293 295 294 298 302 301 294 290 289 293 299 306 313 319 324 327 328 328 332 339 343 345 346 347 349 350 350 349 349 349 350 352 354 357 1 4 4 4 4 2 1 2
220 219 220 218 215 215 219 220 220 223 226 226 225 221 214 211 210 214 223 231 233 236 238 238 236 234 231 228 227 227 230 234 236 240 246 252 257 262 263 265 271 277 282 287 290 292 295 300 302 298 292 288 289 294 302 310 314 318 323 323 321 321 328 335 340 341 342 344 347 349 349 350 350 350 350 351 352 356 359 2 3 4 3 1 360
219 218 219 216 213 214 219 220 221 225 228 227 222 216 210 210 214 221 228 233 234 236 237 234 230 228 227 227 227 231 236 241 243 246 253 259 264 265 266 270 275 279 281 285 288 291 293 297 300 301 297 293 292 295 300 307 311 313 318 318 315 314 319 325 331 335 337 339 341 344 345 347 349 350 350 350 349 350 353 357 359 1 2 2 360
221 220 218 214 212 216 221 220 221 226 228 224 218 212 210 214 220 226 231 233 233 234 234 232 230 229 228 228 231 237 242 245 247 250 255 260 263 264 267 273 278 280 282 285 287 288 291 294 298 300 301 300 299 297 295 299 303 306 309 311 310 310 314 317 320 324 327 330 333 337 340 341 344 347 349 349 349 348 348 351 354 357 359 1 0
222 222 219 214 214 217 220 218 220 222 221 217 214 212 215 219 223 228 233 235 236 235 235 235 235 234 233 234 239 244 247 249 251 254 258 261 264 267 272 277 279 281 283 286 286 285 287 289 292 296 300 302 301 295 290 292 298 301 303 306 307 308 311 314 317 319 320 321 324 328 332 334 337 341 344 346 348 348 348 347 348 351 354 357 358
224 222 218 215 217 219 216 213 213 213 211 212 215 217 219 223 226 230 234 237 237 237 238 239 241 241 240 242 245 248 251 254 256 259 263 266 269 273 277 280 283 284 285 287 286 283 280 281 284 289 295 300 299 294 290 291 295 300 303 305 307 309 310 313 318 320 319 317 318 322 324 325 327 333 337 340 342 345 346 347 346 347 348 351 354
222 220 217 216 217 217 212 209 210 208 208 212 219 222 224 226 228 231 235 237 238 240 242 243 244 245 245 246 248 251 255 259 262 265 268 271 273 277 280 281 282 284 284 284 283 280 277 278 280 283 288 293 295 293 290 291 294 297 301 304 305 307 309 312 315 317 316 316 318 320 320 319 320 322 327 332 335 337 341 343 345 345 345 345 347
221 219 218 217 218 217 215 213 211 208 208 214 221 225 227 228 228 231 237 241 242 244 245 246 248 251 252 252 252 254 257 260 264 268 272 274 276 279 279 279 280 281 281 281 279 278 276 277 279 281 284 287 290 290 289 291 293 296 299 301 302 303 306 309 310 311 313 315 318 318 318 317 317 317 318 321 325 330 334 336 338 341 342 342 341
220 218 219 220 220 220 222 221 215 208 207 213 220 225 228 228 229 234 242 246 246 245 244 246 251 256 258 258 258 258 259 262 266 270 273 275 276 277 278 280 281 281 282 281 280 278 277 276 277 279 281 283 285 286 286 288 291 294 296 297 297 298 302 306 308 310 312 315 316 316 315 315 315 315 315 315 316 320 325 328 330 332 335 337 338
221 220 222 222 220 222 231 232 220 209 208 213 221 225 227 227 230 236 244 248 247 245 244 248 253 258 261 263 264 264 264 265 267 271 273 275 277 278 278 279 279 278 280 281 281 280 279 277 276 277 279 280 281 283 284 286 289 290 292 293 293 295 299 302 305 308 310 313 314 314 313 312 312 314 316 315 314 314 316 318 321 324 327 330 333
224 225 225 221 220 228 240 232 215 207 210 218 224 226 226 227 231 236 242 247 249 247 246 249 253 256 260 262 264 266 268 268 269 273 276 279 280 279 277 276 275 274 276 278 277 275 274 273 272 273 275 276 278 280 282 285 287 288 289 290 291 294 297 300 303 305 307 308 309 310 310 310 312 314 316 316 316 314 313 313 314 315 318 321 324
226 227 224 221 226 236 234 218 208 210 221 229 230 228 228 229 233 237 241 246 250 249 250 252 255 258 260 261 262 264 267 268 271 275 278 280 280 279 277 277 277 276 277 278 277 275 273 272 272 274 276 276 277 278 279 281 283 284 286 288 291 294 297 298 301 304 306 306 307 307 307 308 310 311 313 313 313 313 313 313 312 309 309 312 316
226 224 223 228 234 231 218 211 214 224 230 230 228 226 226 228 233 238 243 250 254 255 256 259 261 263 264 264 265 266 268 269 272 275 277 278 279 280 279 279 279 279 281 281 281 279 277 276 276 278 279 279 280 279 279 279 279 279 281 286 291 294 296 296 298 300 303 304 306 306 306 306 306 307 309 309 310 310 311 311 310 307 305 304 306
Height
1531 1532 1533 1534 1535 1537 1538 1539 1539 1540 1541 1541 1542 1542 1542 1543 1544 1545 1546 1547 1548 1548 1549 1549 1549 1550 1550 1551 1551 1552 1553 1553 1553 1554 1554 1555 1555 1555 1555 1555 1555 1554 1554 1554 1554 1554 1553 1553 1552 1552 1551 1550 1549 1548 1546 1545 1543 1542 1540 1539 1538 1536 1534 1533 1530 1526 1524 1523 1520 1516 1514 1511 1508 1505 1501 1498 1495 1492 1490 1487 1484 1480 1478 1475 1472
1530 1531 1532 1533 1534 1536 1537 1538 1538 1539 1540 1540 1541 1541 1542 1543 1544 1546 1547 1547 1548 1549 1549 1549 1550 1550 1551 1551 1552 1553 1553 1554 1554 1555 1555 1555 1556 1556 1555 1555 1555 1555 1555 1555 1555 1555 1554 1554 1553 1552 1552 1551 1549 1548 1547 1545 1544 1542 1541 1539 1538 1537 1534 1532 1530 1526 1522 1520 1518 1515 1513 1510 1506 1504 1501 1497 1493 1490 1487 1484 1481 1478 1475 1472 1468
1529 1530 1532 1532 1533 1535 1535 1536 1537 1538 1539 1539 1540 1541 1542 1543 1545 1546 1547 1548 1548 1549 1549 1550 1550 1551 1552 1552 1553 1553 1554 1554 1555 1555 1556 1556 1556 1556 1556 1556 1556 1556 1556 1556 1556 1556 1555 1555 1554 1553 1552 1551 1550 1548 1547 1546 1544 1542 1541 1540 1538 1537 1535 1533 1530 1526 1522 1519 1517 1514 1510 1508 1505 1502 1499 1496 1493 1489 1485 1481 1478 1475 1472 1468 1465
1528 1529 1530 1531 1532 1533 1534 1535 1536 1537 1538 1538 1539 1541 1542 1544 1545 1546 1547 1548 1549 1549 1549 1550 1550 1551 1552 1553 1553 1554 1554 1555 1555 1556 1556 1556 1556 1556 1556 1556 1556 1556 1557 1557 1557 1557 1556 1556 1555 1553 1552 1551 1550 1549 1547 1546 1544 1543 1541 1540 1538 1537 1535 1533 1531 1527 1523 1518 1516 1513 1509 1506 1503 1500 1497 1494 1491 1487 1483 1479 1475 1471 1468 1465 1461
1527 1528 1529 1530 1530 1532 1533 1534 1535 1536 1537 1538 1539 1541 1542 1544 1545 1546 1548 1549 1549 1550 1550 1550 1551 1551 1552 1553 1554 1554 1555 1556 1556 1556 1556 1557 1557 1557 1557 1557 1557 1557 1558 1558 1558 1557 1557 1556 1555 1554 1553 1551 1550 1549 1547 1546 1545 1543 1542 1540 1538 1537 1535 1533 1530 1528 1524 1519 1515 1512 1509 1505 1501 1499 1496 1492 1487 1484 1480 1476 1472 1468 1463 1460 1457
1526 1527 1528 1528 1530 1531 1532 1533 1534 1535 1537 1538 1539 1541 1543 1545 1546 1547 1548 1549 1549 1550 1550 1551 1551 1552 1553 1553 1554 1555 1556 1556 1556 1557 1557 1557 1558 1558 1558 1558 1558 1558 1558 1558 1558 1558 1557 1556 1555 1554 1553 1551 1550 1549 1548 1547 1545 1543 1542 1540 1538 1536 1534 1532 1529 1526 1523 1519 1515 1510 1507 1503 1500 1497 1495 1491 1486 1481 1476 1471 1468 1465 1461 1455 1451
1525 1526 1527 1528 1529 1530 1531 1533 1534 1535 1537 1538 1540 1542 1543 1545 1546 1547 1548 1549 1549 1550 1550 1551 1552 1552 1553 1554 1555 1556 1556 1557 1557 1557 1558 1558 1558 1558 1558 1558 1559 1559 1559 1559 1558 1558 1557 1556 1555 1554 1553 1552 1551 1549 1548 1547 1545 1544 1542 1540 1538 1536 1533 1531 1528 1525 1522 1518 1514 1510 1505 1502 1499 1496 1493 1490 1485 1481 1475 1468 1461 1459 1457 1453 1447
1524 1525 1526 1527 1528 1530 1531 1533 1534 1535 1537 1538 1540 1542 1544 1545 1546 1547 1548 1548 1549 1550 1551 1552 1552 1553 1554 1555 1556 1556 1557 1557 1557 1558 1558 1558 1559 1559 1559 1559 1559 1559 1559 1559 1558 1558 1557 1556 1555 1554 1553 1552 1551 1550 1548 1547 1545 1544 1542 1540 1537 1535 1532 1529 1527 1524 1520 1516 1513 1509 1505 1501 1498 1495 1491 1487 1482 1478 1474 1469 1461 1454 1451 1448 1444
1523 1524 1525 1527 1528 1529 1531 1532 1533 1535 1537 1539 1540 1542 1544 1545 1546 1547 1547 1548 1549 1550 1551 1552 1553 1554 1554 1555 1556 1557 1557 1558 1558 1558 1558 1559 1559 1559 1559 1560 1560 1560 1559 1559 1559 1558 1557 1556 1555 1554 1553 1552 1551 1550 1549 1547 1545 1543 1541 1539 1536 1534 1531 1529 1525 1522 1519 1515 1511 1507 1504 1500 1497 1493 1488 1485 1481 1475 1471 1467 1461 1455 1449 1442 1440
1522 1523 1524 1525 1527 1529 1530 1532 1533 1535 1537 1538 1540 1542 1543 1544 1546 1547 1547 1548 1549 1550 1551 1552 1553 1554 1555 1556 1557 1557 1558 1558 1558 1559 1559 1559 1560 1560 1560 1560 1560 1560 1560 1559 1559 1558 1557 1557 1556 1555 1554 1553 1552 1550 1549 1547 1546 1544 1541 1539 1536 1533 1530 1528 1525 1521 1517 1514 1510 1506 1503 1499 1496 1493 1488 1484 1481 1475 1470 1464 1458 1452 1447 1438 1432
1520 1522 1523 1524 1526 1528 1530 1531 1533 1535 1536 1538 1540 1541 1543 1544 1545 1547 1547 1548 1550 1551 1552 1553 1554 1555 1555 1556 1557 1557 1558 1558 1559 1559 1560 1560 1560 1560 1560 1560 1560 1560 1560 1560 1559 1558 1558 1557 1556 1555 1554 1553 1552 1550 1549 1547 1545 1544 1542 1539 1537 1534 1530 1527 1524 1521 1517 1513 1510 1507 1503 1500 1496 1493 1489 1484 1479 1474 1469 1464 1458 1451 1446 1438 1430
1519 1520 1521 1523 1525 1527 1529 1531 1532 1534 1536 1538 1539 1541 1542 1544 1545 1546 1547 1548 1550 1551 1552 1553 1554 1555 1556 1556 1557 1558 1558 1559 1559 1560 1560 1560 1560 1561 1561 1561 1561 1561 1560 1560 1559 1559 1558 1557 1556 1555 1554 1553 1551 1550 1548 1547 1545 1544 1542 1540 1537 1535 1532 1528 1524 1520 1517 1513 1510 1507 1504 1500 1496 1493 1488 1483 1478 1473 1468 1463 1459 1453 1447 1441 1433
1517 1518 1520 1522 1524 1526 1528 1530 1532 1534 1535 1537 1539 1540 1542 1543 1545 1546 1547 1548 1550 1551 1552 1553 1554 1555 1556 1556 1557 1558 1559 1559 1559 1560 1560 1560 1561 1561 1561 1561 1561 1561 1561 1560 1560 1559 1558 1557 1556 1555 1554 1553 1551 1549 1548 1546 1545 1543 1542 1540 1537 1535 1532 1529 1526 1522 1518 1514 1511 1508 1505 1501 1497 1493 1489 1484 1478 1472 1467 1462 1457 1453 1447 1441 1435
1515 1517 1519 1522 1524 1526 1528 1529 1531 1533 1535 1536 1538 1540 1542 1543 1544 1546 1547 1548 1549 1551 1552 1553 1554 1555 1555 1556 1557 1558 1559 1559 1559 1560 1560 1560 1560 1561 1561 1561 1561 1561 1561 1560 1560 1559 1558 1557 1556 1555 1554 1552 1551 1549 1547 1545 1544 1543 1541 1539 1537 1534 1531 1529 1526 1522 1519 1515 1512 1508 1506 1502 1498 1493 1489 1485 1479 1472 1466 1460 1455 1450 1445 1439 1434
1514 1516 1518 1521 1523 1525 1527 1528 1530 1532 1534 1536 1537 1539 1541 1543 1544 1545 1547 1548 1549 1551 1552 1553 1554 1554 1555 1556 1557 1558 1559 1559 1559 1559 1560 1560 1560 1560 1560 1561 1561 1561 1561 1561 1560 1559 1558 1557 1556 1555 1554 1552 1550 1548 1547 1545 1543 1542 1540 1538 1536 1533 1530 1527 1524 1521 1518 1515 1512 1509 1506 1502 1499 1494 1489 1485 1480 1474 1468 1462 1456 1450 1443 1436 1431
1513 1515 1517 1520 1522 1523 1525 1527 1529 1531 1533 1534 1536 1538 1540 1542 1544 1545 1546 1548 1549 1550 1552 1553 1554 1554 1555 1556 1557 1558 1559 1559 1559 1559 1560 1560 1559 1559 1560 1560 1560 1561 1561 1560 1560 1559 1558 1557 1556 1555 1554 1552 1550 1548 1546 1544 1543 1541 1539 1537 1535 1532 1530 1527 1525 1522 1519 1515 1512 1509 1506 1503 1499 1495 1490 1485 1480 1474 1467 1461 1455 1448 1439 1432 1427
1512 1514 1516 1518 1520 1522 1524 1526 1528 1530 1531 1533 1535 1537 1539 1541 1543 1545 1546 1547 1549 1550 1552 1553 1554 1555 1555 1556 1557 1558 1559 1559 1559 1559 1560 1560 1559 1559 1559 1560 1560 1560 1560 1560 1560 1559 1558 1557 1556 1555 1554 1552 1550 1548 1546 1544 1542 1540 1538 1536 1533 1531 1529 1526 1524 1522 1519 1516 1513 1509 1506 1503 1499 1495 1490 1485 1479 1472 1465 1458 1451 1444 1437 1430 1423
1511 1513 1515 1517 1519 1521 1523 1525 1527 1528 1530 1533 1535 1537 1539 1541 1543 1545 1546 1547 1549 1550 1551 1552 1553 1554 1555 1556 1557 1558 1558 1559 1559 1559 1559 1559 1559 1559 1559 1559 1560 1560 1560 1560 1560 1559 1558 1557 1556 1555 1554 1552 1550 1548 1546 1544 1542 1540 1537 1535 1532 1530 1527 1525 1522 1520 1518 1515 1512 1508 1505 1501 1497 1493 1488 1484 1478 1472 1465 1458 1451 1444 1437 1431 1423
1509 1511 1513 1515 1518 1520 1522 1524 1526 1528 1530 1532 1534 1537 1539 1541 1543 1544 1546 1548 1549 1550 1551 1552 1553 1554 1555 1556 1557 1558 1558 1559 1559 1559 1559 1559 1559 1559 1559 1559 1559 1559 1559 1559 1559 1558 1558 1557 1556 1555 1553 1552 1549 1547 1545 1543 1541 1539 1536 1534 1531 1529 1526 1524 1521 1518 1516 1513 1509 1506 1503 1499 1496 1491 1487 1483 1478 1472 1467 1460 1453 1445 1438 1432 1425
1508 1510 1513 1515 1517 1519 1521 1523 1525 1527 1529 1532 1534 1537 1538 1540 1542 1544 1546 1547 1549 1550 1551 1552 1553 1554 1555 1556 1557 1557 1558 1558 1559 1559 1559 1559 1559 1559 1559 1559 1559 1559 1559 1559 1558 1558 1558 1557 1556 1555 1553 1551 1549 1547 1545 1543 1541 1539 1536 1534 1531 1528 1526 1524 1522 1518 1515 1512 1508 1505 1502 1498 1494 1490 1486 1481 1477 1472 1467 1460 1454 1447 1439 1432 1426
1507 1510 1512 1514 1516 1518 1520 1523 1525 1527 1529 1532 1534 1536 1538 1540 1542 1544 1545 1547 1548 1550 1551 1552 1553 1554 1554 1555 1556 1557 1557 1558 1558 1559 1559 1559 1559 1559 1559 1559 1559 1559 1559 1558 1558 1558 1557 1557 1556 1555 1553 1551 1549 1547 1545 1543 1541 1539 1536 1534 1531 1529 1527 1524 1522 1519 1516 1512 1508 1505 1501 1497 1493 1489 1485 1480 1476 1471 1465 1459 1454 1448 1441 1433 1426
1506 1508 1510 1513 1515 1517 1519 1521 1524 1526 1529 1531 1533 1535 1537 1539 1541 1543 1545 1546 1547 1549 1550 1551 1552 1553 1554 1555 1556 1557 1557 1557 1558 1558 1559 1559 1559 1559 1559 1558 1559 1558 1558 1558 1558 1558 1557 1557 1555 1554 1552 1551 1549 1547 1545 1543 1541 1539 1537 1535 1533 1530 1528 1525 1522 1519 1515 1512 1508 1504 1500 1496 1492 1488 1484 1480 1475 1470 1464 1459 1454 1448 1442 1436 1429
1505 1507 1509 1511 1514 1516 1518 1520 1523 1525 1528 1530 1532 1535 1537 1538 1540 1542 1544 1545 1546 1548 1549 1550 1551 1552 1553 1554 1555 1556 1556 1557 1557 1558 1558 1558 1558 1558 1558 1558 1558 1558 1558 1558 1558 1557 1557 1556 1555 1554 1552 1550 1549 1547 1545 1543 1541 1539 1537 1535 1533 1530 1528 1525 1522 1518 1515 1511 1508 1504 1500 1496 1492 1488 1484 1480 1475 1470 1465 1460 1454 1448 1442 1436 1430
1504 1506 1508 1510 1512 1515 1517 1519 1521 1524 1527 1529 1531 1533 1535 1537 1539 1541 1543 1544 1545 1547 1548 1549 1550 1551 1553 1554 1554 1555 1556 1556 1557 1557 1558 1558 1558 1558 1558 1558 1558 1558 1558 1558 1557 1557 1556 1556 1554 1553 1552 1550 1549 1547 1545 1543 1541 1539 1537 1535 1533 1530 1527 1524 1521 1518 1514 1511 1507 1504 1500 1497 1493 1489 1485 1481 1477 1472 1467 1462 1456 1450 1443 1437 1430
1502 1504 1506 1509 1511 1513 1515 1518 1520 1523 1525 1528 1530 1532 1534 1536 1537 1539 1541 1543 1544 1545 1547 1548 1549 1551 1552 1553 1554 1554 1555 1555 1556 1557 1557 1557 1557 1558 1558 1557 1557 1557 1558 1557 1557 1556 1556 1555 1554 1553 1551 1550 1548 1547 1545 1543 1541 1539 1537 1535 1532 1530 1527 1524 1521 1517 1514 1510 1507 1504 1501 1498 1494 1491 1488 1484 1479 1473 1468 1462 1456 1450 1443 1436 1430
1501 1503 1505 1507 1510 1512 1514 1517 1519 1522 1524 1526 1528 1530 1532 1534 1536 1538 1539 1541 1543 1544 1546 1547 1549 1550 1551 1552 1553 1554 1554 1555 1555 1556 1556 1557 1557 1557 1557 1557 1557 1557 1557 1557 1556 1556 1555 1554 1553 1552 1551 1550 1548 1546 1544 1542 1540 1539 1537 1535 1532 1529 1527 1524 1521 1517 1514 1511 1508 1505 1502 1499 1496 1493 1489 1484 1479 1474 1468 1462 1455 1449 1442 1435 1429
1499 1501 1503 1506 1508 1510 1512 1515 1518 1520 1522 1525 1527 1529 1531 1533 1535 1536 1538 1540 1541 1543 1544 1546 1547 1549 1550 1551 1552 1553 1554 1554 1555 1555 1556 1556 1556 1556 1556 1556 1557 1557 1556 1556 1556 1555 1555 1554 1553 1552 1550 1549 1547 1545 1544 1542 1540 1539 1537 1535 1532 1530 1527 1524 1521 1518 1515 1512 1509 1506 1503 1500 1496 1492 1488 1484 1479 1474 1469 1463 1457 1450 1443 1437 1430
1498 1500 1502 1504 1506 1509 1511 1514 1516 1518 1521 1523 1525 1527 1529 1532 1533 1534 1536 1538 1539 1541 1543 1544 1546 1548 1549 1550 1551 1552 1553 1553 1554 1555 1555 1555 1556 1556 1555 1556 1556 1556 1556 1555 1555 1555 1554 1553 1552 1551 1550 1548 1546 1545 1543 1542 1540 1538 1536 1534 1532 1530 1528 1525 1523 1520 1516 1513 1510 1507 1504 1500 1496 1492 1488 1484 1480 1476 1471 1466 1460 1453 1446 1439 1433
1497 1499 1501 1503 1505 1508 1510 1513 1515 1517 1519 1522 1524 1526 1528 1530 1532 1534 1536 1538 1539 1541 1542 1544 1546 1548 1549 1550 1550 1551 1552 1553 1554 1554 1554 1555 1555 1555 1555 1555 1555 1555 1555 1555 1554 1554 1553 1552 1551 1550 1549 1547 1546 1544 1542 1541 1539 1538 1536 1534 1532 1530 1528 1525 1522 1520 1517 1513 1510 1507 1503 1500 1496 1493 1489 1485 1481 1477 1472 1468 1462 1456 1450 1443 1437
1495 1497 1499 1501 1504 1506 1509 1511 1514 1516 1518 1520 1523 1525 1527 1529 1531 1534 1536 1538 1540 1541 1543 1544 1546 1547 1548 1549 1550 1551 1552 1553 1553 1554 1554 1554 1554 1554 1554 1555 1555 1554 1554 1554 1553 1553 1552 1551 1550 1549 1547 1546 1544 1543 1541 1540 1538 1537 1535 1534 1532 1529 1527 1525 1522 1520 1517 1514 1511 1507 1504 1500 1496 1493 1489 1485 1481 1478 1474 1470 1465 1459 1453 1447 1441
1493 1495 1497 1500 1502 1504 1507 1510 1512 1515 1517 1519 1522 1524 1526 1528 1531 1533 1536 1538 1539 1541 1542 1544 1545 1546 1547 1548 1549 1550 1551 1552 1552 1553 1553 1553 1553 1553 1553 1553 1553 1553 1553 1553 1552 1551 1550 1549 1549 1547 1546 1545 1543 1542 1540 1539 1537 1536 1534 1533 1531 1529 1527 1525 1522 1520 1517 1514 1511 1508 1504 1501 1497 1494 1490 1486 1482 1479 1475 1471 1467 1462 1456 1451 1445
1491 1493 1495 1498 1500 1503 1506 1508 1510 1513 1515 1518 1521 1523 1524 1527 1529 1532 1534 1536 1538 1539 1540 1542 1543 1545 1546 1547 1548 1549 1550 1550 1551 1551 1552 1552 1552 1551 1551 1552 1552 1551 1551 1551 1550 1550 1549 1548 1547 1546 1545 1543 1542 1541 1539 1538 1537 1535 1533 1532 1530 1528 1526 1524 1522 1520 1517 1514 1512 1508 1505 1502 1498 1495 1491 1488 1484 1480 1476 1472 1468 1464 1459 1455 1450
1489 1491 1493 1496 1499 1502 1504 1507 1509 1512 1514 1516 1519 1521 1523 1524 1526 1529 1532 1534 1536 1537 1539 1540 1542 1543 1544 1546 1546 1547 1548 1549 1549 1550 1550 1550 1550 1550 1550 1550 1550 1550 1549 1549 1549 1548 1547 1546 1546 1545 1544 1542 1541 1540 1538 1537 1536 1534 1533 1531 1529 1528 1526 1524 1522 1519 1517 1514 1512 1509 1506 1503 1499 1496 1493 1489 1485 1482 1478 1474 1470 1466 1462 1458 1453
1487 1489 1492 1494 1497 1500 1503 1505 1508 1510 1513 1515 1517 1519 1521 1522 1525 1528 1530 1532 1534 1535 1537 1539 1540 1541 1543 1544 1545 1546 1547 1547 1548 1548 1548 1548 1548 1548 1549 1549 1548 1548 1547 1547 1547 1546 1545 1545 1544 1543 1542 1541 1540 1539 1537 1536 1535 1534 1532 1531 1529 1527 1525 1523 1521 1519 1517 1515 1512 1509 1507 1504 1500 1497 1494 1490 1487 1483 1480 1476 1472 1468 1464 1461 1456
1486 1488 1490 1493 1495 1498 1500 1503 1506 1509 1512 1514 1516 1518 1520 1522 1524 1527 1529 1531 1532 1534 1535 1537 1539 1540 1541 1542 1543 1544 1545 1545 1546 1546 1546 1546 1547 1547 1547 1547 1546 1546 1546 1545 1545 1544 1543 1543 1542 1542 1541 1540 1538 1537 1536 1535 1534 1533 1531 1530 1528 1526 1524 1523 1521 1519 1517 1514 1512 1509 1507 1504 1501 1498 1495 1491 1488 1484 1481 1478 1475 1471 1467 1464 1460
1484 1486 1488 1491 1494 1496 1498 1501 1504 1506 1509 1512 1514 1516 1518 1521 1523 1526 1528 1530 1532 1533 1535 1536 1537 1538 1539 1540 1541 1542 1543 1543 1544 1544 1544 1545 1545 1545 1545 1545 1544 1544 1544 1543 1543 1542 1542 1541 1540 1540 1539 1538 1537 1536 1535 1534 1533 1532 1530 1529 1527 1525 1524 1522 1520 1518 1516 1514 1512 1509 1507 1505 1502 1499 1496 1493 1489 1486 1483 1480 1477 1474 1470 1467 1464
1481 1484 1486 1489 1492 1494 1497 1499 1502 1505 1507 1510 1512 1515 1517 1520 1523 1525 1527 1529 1530 1532 1533 1535 1535 1536 1537 1538 1539 1540 1540 1541 1542 1542 1542 1543 1543 1543 1543 1543 1543 1542 1542 1542 1541 1541 1540 1539 1539 1538 1537 1537 1536 1535 1534 1532 1531 1530 1529 1528 1526 1525 1523 1521 1519 1518 1516 1513 1511 1509 1507 1505 1502 1499 1497 1494 1491 1488 1485 1481 1478 1476 1473 1469 1466
1479 1481 1484 1487 1490 1493 1496 1498 1501 1504 1506 1508 1510 1513 1516 1519 1521 1523 1525 1527 1529 1530 1532 1533 1533 1534 1535 1536 1537 1538 1538 1539 1539 1540 1540 1541 1541 1541 1541 1541 1541 1541 1541 1540 1540 1539 1538 1538 1537 1536 1535 1535 1534 1533 1532 1531 1530 1529 1528 1527 1526 1524 1523 1521 1519 1517 1515 1513 1511 1509 1507 1505 1502 1500 1497 1495 1492 1489 1486 1483 1479 1477 1474 1471 1468
1477 1480 1483 1486 1489 1491 1494 1497 1499 1502 1504 1506 1508 1511 1514 1517 1519 1522 1524 1526 1527 1528 1529 1531 1531 1532 1533 1534 1535 1535 1535 1536 1536 1537 1538 1539 1539 1539 1539 1539 1539 1539 1539 1539 1538 1537 1537 1536 1535 1534 1534 1533 1532 1531 1530 1529 1528 1528 1526 1525 1524 1523 1522 1520 1518 1517 1515 1513 1511 1509 1506 1504 1502 1500 1498 1495 1493 1490 1487 1484 1481 1478 1475 1473 1470
1475 1479 1482 1485 1487 1490 1493 1495 1498 1499 1501 1503 1506 1509 1512 1515 1518 1520 1522 1524 1525 1526 1527 1528 1529 1530 1532 1532 1532 1532 1533 1534 1534 1535 1536 1537 1537 1537 1537 1537 1537 1537 1537 1536 1536 1535 1534 1534 1533 1532 1531 1531 1530 1529 1528 1528 1527 1526 1525 1524 1523 1522 1520 1519 1517 1516 1514 1512 1510 1508 1506 1504 1502 1500 1498 1496 1493 1491 1488 1486 1483 1480 1477 1475 1472
1475 1478 1481 1484 1487 1489 1491 1493 1495 1497 1499 1502 1505 1507 1510 1513 1516 1518 1520 1521 1522 1524 1525 1526 1527 1529 1530 1530 1531 1531 1531 1532 1533 1534 1534 1534 1535 1535 1535 1535 1535 1535 1534 1534 1534 1533 1532 1531 1531 1530 1529 1528 1527 1527 1526 1526 1525 1524 1523 1522 1521 1520 1519 1518 1516 1515 1513 1512 1510 1508 1506 1504 1502 1500 1498 1496 1494 1492 1489 1487 1484 1482 1479 1476 1474
1474 1477 1480 1483 1485 1487 1489 1491 1493 1496 1498 1501 1503 1506 1508 1511 1514 1516 1518 1519 1521 1522 1523 1524 1525 1527 1528 1528 1529 1529 1529 1530 1531 1531 1532 1532 1532 1532 1532 1532 1532 1532 1532 1531 1531 1530 1530 1529 1528 1527 1526 1526 1525 1525 1524 1524 1523 1522 1521 1520 1519 1518 1517 1516 1515 1514 1512 1511 1509 1507 1506 1504 1502 1500 1497 1495 1493 1491 1490 1487 1485 1483 1480 1477 1475
1472 1475 1478 1481 1483 1485 1487 1489 1492 1494 1497 1499 1502 1504 1507 1509 1511 1513 1515 1517 1518 1520 1521 1522 1523 1524 1526 1526 1526 1527 1527 1527 1528 1529 1529 1530 1530 1530 1530 1530 1530 1529 1529 1529 1528 1528 1527 1526 1525 1525 1524 1523 1523 1523 1522 1522 1521 1520 1519 1518 1517 1516 1515 1514 1513 1512 1511 1509 1508 1506 1505 1503 1501 1499 1497 1495 1493 1491 1489 1487 1485 1483 1481 1478 1476
1471 1474 1477 1479 1481 1483 1485 1488 1490 1492 1495 1498 1500 1503 1505 1507 1509 1510 1512 1514 1516 1517 1518 1519 1521 1522 1523 1524 1524 1524 1524 1525 1525 1526 1526 1527 1527 1527 1527 1527 1527 1527 1526 1526 1525 1525 1524 1524 1523 1522 1522 1521 1521 1521 1520 1520 1519 1518 1517 1516 1515 1514 1513 1512 1511 1510 1509 1507 1506 1505 1503 1502 1500 1499 1497 1495 1493 1491 1489 1487 1485 1483 1481 1479 1477
1470 1472 1475 1477 1479 1481 1483 1485 1488 1490 1493 1496 1498 1500 1502 1504 1506 1508 1510 1511 1513 1514 1516 1517 1518 1519 1520 1521 1521 1521 1521 1522 1523 1523 1524 1524 1524 1524 1524 1524 1524 1524 1523 1523 1523 1522 1522 1521 1521 1520 1520 1519 1519 1518 1518 1517 1517 1516 1515 1514 1513 1512 1511 1510 1509 1508 1506 1505 1504 1503 1502 1500 1499 1497 1496 1494 1492 1490 1489 1487 1485 1483 1481 1479 1477
1468 1470 1473 1475 1477 1479 1481 1483 1486 1488 1491 1493 1496 1498 1500 1502 1504 1506 1507 1509 1510 1512 1513 1514 1515 1516 1517 1517 1518 1518 1518 1519 1519 1520 1520 1521 1521 1521 1521 1521 1521 1521 1520 1520 1520 1520 1519 1519 1518 1518 1517 1517 1516 1516 1515 1515 1514 1514 1513 1512 1511 1510 1509 1508 1507 1505 1504 1503 1502 1501 1500 1498 1497 1495 1494 1493 1491 1490 1488 1486 1484 1482 1481 1479 1477
1466 1468 1471 1473 1475 1477 1480 1481 1483 1486 1489 1491 1493 1495 1498 1500 1501 1503 1505 1506 1508 1509 1510 1511 1512 1513 1513 1514 1515 1515 1515 1516 1516 1516 1517 1517 1517 1518 1518 1518 1517 1517 1517 1517 1517 1516 1516 1515 1515 1514 1514 1514 1513 1513 1512 1512 1511 1511 1510 1509 1508 1507 1506 1505 1504 1503 1502 1501 1500 1499 1497 1496 1494 1493 1492 1491 1490 1488 1487 1485 1484 1482 1480 1479 1477
1465 1467 1469 1471 1474 1476 1478 1479 1481 1484 1486 1489 1491 1493 1495 1497 1499 1501 1502 1504 1505 1506 1507 1508 1509 1510 1510 1511 1511 1512 1512 1512 1513 1513 1513 1514 1514 1514 1514 1514 1514 1514 1513 1513 1513 1513 1512 1512 1512 1511 1511 1511 1510 1510 1509 1509 1508 1508 1507 1506 1506 1505 1504 1503 1502 1501 1500 1499 1498 1496 1495 1494 1492 1491 1490 1488 1487 1486 1485 1484 1482 1481 1479 1478 1476
1464 1466 1468 1470 1472 1475 1476 1477 1479 1482 1484 1487 1489 1491 1492 1494 1496 1498 1500 1501 1502 1503 1504 1505 1506 1506 1507 1507 1508 1508 1509 1509 1509 1510 1510 1510 1510 1510 1510 1510 1510 1510 1510 1510 1510 1509 1509 1509 1508 1508 1508 1507 1507 1507 1506 1506 1505 1505 1504 1503 1503 1502 1501 1500 1499 1498 1497 1496 1495 1494 1493 1491 1490 1489 1487 1486 1485 1484 1482 1481 1480 1479 1478 1477 1475
1462 1464 1466 1469 1471 1473 1474 1476 1478 1480 1483 1485 1487 1488 1490 1492 1494 1496 1497 1499 1499 1500 1501 1502 1502 1503 1504 1504 1504 1505 1505 1505 1506 1506 1506 1506 1507 1507 1507 1507 1507 1507 1507 1506 1506 1506 1506 1506 1505 1505 1504 1504 1503 1503 1503 1502 1502 1501 1501 1500 1499 1499 1498 1497 1496 1496 1495 1494 1492 1491 1490 1489 1487 1486 1485 1484 1482 1481 1480 1479 1478 1477 1476 1475 1474
1461 1463 1465 1467 1469 1471 1473 1475 1477 1479 1481 1483 1485 1486 1488 1490 1491 1493 1495 1496 1496 1497 1498 1499 1499 1500 1500 1500 1501 1501 1501 1502 1502 1502 1502 1503 1503 1503 1503 1503 1503 1503 1503 1503 1502 1502 1502 1502 1502 1501 1501 1500 1500 1499 1499 1498 1498 1498 1497 1497 1496 1495 1495 1494 1493 1493 1492 1491 1490 1488 1487 1486 1484 1483 1482 1481 1480 1478 1477 1476 1475 1474 1473 1472 1471